CAPE
0 0 0 5 36 55 69 63 79 120 147 66 14 44 63 61 86 23 19 30 70 57 129 98 63 115 168 180 407 637 467 411 814 550 649 495 571 695 725 913 1115 1467 939 600
0 0 0 5 78 40 5 215 200 145 115 59 45 7 84 41 49 82 32 26 52 56 104 85 70 169 199 232 460 433 341 546 622 456 489 682 988 991 874 843 1100 1230 804 1010
0 8 0 0 110 47 244 239 115 96 123 37 45 18 111 50 58 74 49 55 47 27 70 100 64 162 269 313 362 273 360 480 384 351 310 570 676 974 1022 998 1139 1055 1186 1056
0 0 14 0 3 7 215 348 27 0 67 0 17 0 12 9 53 53 22 40 26 22 52 39 114 103 193 280 268 308 310 265 231 243 262 412 375 621 598 858 655 1016 1074 850
0 0 13 5 0 49 162 155 140 199 98 36 19 0 0 27 21 16 0 12 53 26 39 78 87 85 111 208 351 301 278 264 214 120 181 302 439 348 590 698 789 715 922 1035
0 0 0 2 12 79 115 99 99 120 12 0 8 5 0 0 0 0 0 9 33 29 73 141 144 130 69 154 353 246 333 320 262 38 141 233 280 332 352 560 911 780 801 792
0 0 0 2 343 379 80 17 0 2 0 0 10 0 0 11 0 11 14 6 23 34 30 141 231 238 170 76 354 323 364 328 312 298 169 198 188 324 518 314 661 819 824 748
0 0 0 0 277 395 122 151 75 14 0 4 42 0 0 17 80 80 49 16 34 46 43 42 192 301 379 277 615 614 339 356 376 349 349 312 308 445 489 464 568 657 662 677
0 0 0 0 0 354 237 114 70 63 36 4 2 0 83 218 291 242 71 24 25 91 71 49 108 326 462 466 827 787 539 490 534 376 382 388 415 375 318 463 524 618 847 747
0 0 0 0 0 0 0 0 32 38 4 4 60 2 11 112 199 166 49 13 17 70 100 74 69 141 293 649 890 849 648 615 608 456 425 551 368 471 408 484 589 782 894 1052
0 0 0 0 0 0 0 0 0 0 5 0 5 33 53 42 114 153 93 9 9 55 94 92 114 158 169 416 1004 824 679 550 518 730 753 726 549 682 718 820 820 972 815 1013
0 0 0 0 0 0 0 0 0 0 0 2 33 0 331 135 186 111 92 65 19 0 76 95 87 102 204 277 877 745 688 469 465 841 730 505 614 555 629 790 790 792 908 1091
1 0 0 0 1 2 0 0 1 15 0 0 0 0 388 307 124 5 0 0 0 38 37 63 84 84 248 518 803 803 703 686 686 942 467 568 788 743 694 689 746 815 864 903
8 0 0 16 23 0 0 70 166 18 0 0 0 32 317 310 93 23 4 14 16 14 70 82 94 120 550 735 809 736 738 751 844 1060 727 684 710 942 1039 737 568 677 777 822
2 19 12 6 97 113 245 177 192 370 481 0 0 56 135 232 107 91 105 65 90 179 243 151 106 121 213 453 584 569 501 395 541 610 846 670 610 663 625 729 677 743 789 612
24 86 127 144 181 159 117 66 62 252 375 475 191 192 218 122 94 151 184 29 114 224 299 250 175 144 233 376 604 480 263 238 152 234 320 604 479 344 281 364 358 451 631 734
53 89 41 168 132 77 71 32 82 318 252 483 336 148 140 149 188 192 13 16 52 168 348 241 196 186 203 285 362 191 170 158 118 170 277 276 327 149 150 176 251 278 206 287
33 22 87 26 78 67 33 28 46 181 487 188 172 76 137 137 298 206 85 98 10 61 127 61 94 285 179 153 198 139 107 73 113 155 296 320 252 177 96 148 173 139 142 146
42 108 92 28 104 105 43 26 23 128 119 460 652 691 378 298 152 47 78 218 97 124 87 184 95 132 271 304 251 274 132 170 212 191 180 208 201 172 176 138 70 65 79 109
7 83 100 33 4 15 23 19 97 64 58 213 429 592 458 258 68 109 37 89 127 205 168 342 268 224 193 335 284 234 141 110 111 157 206 230 153 112 96 78 51 42 78 78
94 8 11 30 78 10 33 24 1 9 22 264 274 182 232 251 199 154 86 68 139 301 418 335 251 490 375 276 295 250 93 84 143 175 208 200 192 130 80 56 62 65 92 86
0 0 0 0 30 30 49 18 8 19 268 310 74 109 422 393 228 216 173 122 155 226 150 145 343 543 520 507 464 757 321 97 224 243 219 145 83 66 92 49 37 54 56 35
0 0 0 0 0 110 126 130 158 86 503 419 302 379 472 379 283 250 170 86 111 134 163 109 98 104 97 142 186 227 210 291 310 243 314 120 122 78 56 29 29 65 72 51
5 7 0 2 26 25 41 66 39 48 161 590 560 668 549 387 342 186 130 36 72 73 53 44 36 21 16 45 98 168 246 90 146 164 247 287 208 173 110 85 55 28 0 5
55 16 17 33 24 47 13 0 0 0 172 908 810 642 525 348 216 110 11 27 14 5 11 11 3 0 0 0 21 71 159 159 115 185 132 124 71 98 121 114 109 44 79 29
17 40 38 57 107 40 0 0 0 0 178 631 560 439 362 284 207 99 4 0 0 0 0 0 0 0 0 0 0 0 2 5 20 32 45 60 29 69 29 46 45 70 95 60
CIN
-0 -0 -0 -39 -8 -0 -1 -18 -30 -25 -69 -15 -43 -0 -0 -9 -32 -11 -6 -2 -17 -53 -78 -78 -49 -102 -99 -106 -51 -56 -61 -81 -49 -27 -21 -35 -35 -105 -35 -41 -34 -46 -26 -41
-0 -0 -1 -24 -3 -2 -1 -15 -44 -18 -24 -13 -109 -16 -39 -19 -20 -82 -29 -7 -18 -31 -58 -108 -101 -127 -110 -110 -60 -62 -74 -68 -45 -60 -60 -54 -43 -70 -64 -54 -38 -43 -23 -23
-0 -3 -0 -1 -1 -2 -46 -88 -99 -5 -4 -27 -33 -17 -0 -13 -16 -35 -58 -59 -11 -74 -83 -107 -97 -111 -114 -117 -81 -120 -107 -58 -52 -61 -78 -43 -29 -49 -44 -46 -23 -46 -30 -29
-0 -0 -9 -0 -10 -7 -71 -104 -60 -0 -1 -0 -22 -0 -0 -2 -6 -25 -29 -51 -34 -37 -93 -107 -118 -108 -124 -117 -115 -128 -96 -77 -85 -51 -87 -36 -26 -18 -29 -31 -21 -18 -14 -19
-0 -0 -4 -12 -0 -79 -159 -53 -30 -13 -24 -0 -35 -0 -0 -5 -1 -14 -0 -33 -42 -14 -112 -123 -127 -142 -135 -133 -125 -80 -128 -107 -110 -91 -76 -53 -31 -21 -20 -43 -52 -41 -35 -19
-0 -0 -0 -8 -34 -190 -216 -136 -73 -22 -5 -0 -14 -0 -0 -0 -0 -0 -0 -28 -82 -3 -112 -117 -115 -123 -56 -109 -109 -128 -137 -135 -93 -283 -59 -53 -33 -19 -8 -33 -44 -55 -35 -24
-0 -0 -0 -3 -156 -124 -23 -94 -0 -20 -0 -0 -13 -0 -0 -12 -0 -0 -0 -75 -20 -10 -75 -91 -108 -107 -153 -143 -110 -123 -101 -122 -133 -67 -197 -140 -100 -33 -29 -50 -65 -35 -33 -54
-0 -0 -0 -0 -57 -96 -10 -36 -90 -1 -0 -1 -1 -0 -0 -34 -39 -37 -15 -3 -7 -52 -42 -51 -72 -122 -131 -130 -119 -105 -140 -140 -120 -98 -91 -98 -97 -33 -34 -12 -63 -27 -33 -46
-0 -0 -0 -0 -0 -119 -29 -42 -42 -116 -47 -4 -1 -0 -124 -79 -99 -71 -53 -2 -58 -59 -31 -35 -83 -79 -119 -128 -107 -112 -120 -117 -97 -115 -112 -91 -59 -34 -17 -36 -33 -31 -23 -28
-0 -0 -0 -0 -0 -0 -0 -0 -16 -29 -5 -5 -18 -2 -29 -194 -156 -138 -83 -35 -1 -49 -54 -38 -31 -64 -70 -129 -121 -114 -123 -129 -102 -105 -121 -62 -48 -44 -66 -52 -57 -21 -23 -34
-0 -0 -0 -0 -0 -0 -0 -0 -0 -1 -0 -0 -4 -102 -239 -223 -179 -142 -133 -59 -16 -45 -41 -42 -53 -73 -77 -107 -101 -108 -113 -97 -85 -82 -54 -36 -44 -26 -24 -30 -28 -16 -36 -39
-0 -0 -0 -0 -0 -0 -0 -0 -0 -0 -0 -2 -38 -0 -172 -247 -286 -160 -139 -66 -35 -3 -37 -34 -45 -50 -126 -110 -88 -102 -114 -111 -112 -62 -48 -84 -48 -43 -41 -29 -34 -39 -22 -30
-3 -0 -0 -0 -6 -1 -0 -0 -7 -2 -0 -0 -0 -0 -262 -265 -161 -46 -0 -0 -0 -214 -119 -58 -34 -159 -154 -179 -122 -103 -98 -99 -91 -31 -67 -51 -37 -39 -32 -25 -24 -28 -34 -28
-54 -1 -0 -7 -2 -1 -0 -90 -149 -56 -0 -0 -0 -239 -248 -197 -356 -309 -297 -173 -130 -266 -134 -89 -25 -118 -148 -165 -98 -70 -82 -60 -51 -15 -17 -27 -32 -20 -16 -13 -30 -21 -27 -30
-85 -76 -61 -12 -73 -49 -78 -140 -167 -122 -123 -0 -0 -136 -136 -208 -154 -44 -123 -206 -288 -179 -148 -77 -122 -100 -115 -182 -114 -37 -29 -49 -43 -18 -27 -17 -35 -27 -29 -13 -7 -15 -21 -29
-62 -44 -17 -24 -45 -48 -96 -177 -136 -142 -115 -111 -238 -243 -235 -244 -235 -145 -80 -71 -158 -189 -213 -110 -38 -62 -201 -165 -74 -58 -46 -32 -49 -17 -66 -25 -24 -38 -13 -13 -28 -22 -23 -11
-17 -44 -15 -19 -22 -19 -60 -163 -95 -87 -74 -67 -38 -74 -78 -124 -77 -103 -65 -173 -126 -222 -133 -86 -24 -35 -98 -56 -51 -144 -75 -25 -34 -90 -96 -51 -11 -28 -50 -99 -58 -17 -20 -21
-18 -40 -39 -7 -33 -17 -51 -73 -131 -96 -44 -50 -36 -37 -73 -71 -64 -89 -139 -188 -289 -254 -51 -44 -1 -43 -40 -69 -153 -128 -58 -95 -160 -80 -76 -68 -58 -39 -60 -80 -56 -50 -43 -68
-76 -27 -20 -22 -47 -76 -54 -51 -76 -87 -91 -9 -17 -0 -40 -75 -146 -170 -198 -94 -114 -58 -56 -13 -57 -21 -5 -30 -31 -31 -42 -135 -96 -53 -65 -32 -45 -52 -82 -68 -50 -27 -37 -70
-44 -61 -15 -31 -21 -27 -75 -25 -100 -116 -26 -38 -38 -37 -81 -65 -175 -117 -191 -122 -34 -24 -35 -31 -54 -24 -8 -0 -0 -0 -28 -51 -43 -35 -39 -27 -50 -69 -61 -37 -60 -62 -36 -31
-67 -32 -4 -73 -42 -40 -35 -26 -25 -11 -109 -30 -72 -54 -102 -117 -168 -218 -167 -109 -122 -48 -40 -57 -48 -4 -18 -39 -7 -0 -0 -0 -2 -17 -11 -36 -23 -9 -26 -53 -81 -45 -24 -19
-23 -0 -0 -2 -41 -15 -50 -56 -23 -69 -64 -25 -22 -68 -126 -144 -200 -184 -203 -203 -164 -135 -122 -104 -54 -5 -6 -3 -0 -0 -0 -17 -1 -0 -3 -26 -40 -47 -88 -139 -59 -61 -52 -63
-0 -0 -0 -0 -0 -65 -47 -38 -51 -72 -40 -44 -46 -137 -102 -123 -132 -164 -183 -238 -193 -193 -164 -156 -151 -128 -117 -86 -62 -34 -22 -1 -0 -0 -1 -26 -44 -68 -82 -88 -80 -45 -37 -46
-12 -76 -0 -17 -54 -53 -24 -24 -40 -70 -42 -13 -38 -71 -82 -102 -118 -112 -174 -189 -188 -204 -225 -195 -183 -186 -172 -140 -104 -53 -8 -32 -16 -15 -6 -1 -3 -3 -14 -24 -37 -7 -2 -42
-38 -42 -121 -78 -83 -72 -77 -0 -0 -0 -45 -24 -28 -39 -43 -76 -87 -79 -183 -168 -132 -156 -208 -203 -61 -0 -0 -0 -100 -67 -25 -9 -14 -3 -7 -13 -7 -3 -1 -0 -1 -12 -1 -9
-57 -39 -87 -40 -46 -45 -0 -34 -0 -0 -22 -34 -48 -42 -34 -31 -51 -89 -161 -44 -0 -0 -0 -0 -0 -0 -0 -0 -0 -0 -15 -13 -31 -29 -24 -15 -12 -8 -15 -5 -6 -0 -0 -2
Wind_Speed
nan nan nan nan nan nan nan nan nan 10 7 nan nan nan nan nan nan nan nan nan nan nan 10 nan nan 5 3 6 6 9 6 10 7 12 11 9 11 13 15 17 15 14 12 13
nan nan nan nan nan nan nan 16 16 18 10 nan nan nan nan nan nan nan nan nan nan nan 8 nan nan 3 5 3 6 7 5 11 8 8 13 14 12 13 11 14 16 16 9 12
nan nan nan nan 22 nan 23 22 22 nan 11 nan nan nan 31 nan nan nan nan nan nan nan nan 9 nan 4 5 3 6 3 6 10 8 5 8 14 14 15 11 12 15 16 11 11
nan nan nan nan nan nan 25 23 nan nan nan nan nan nan nan nan nan nan nan nan nan nan nan nan 7 4 3 2 2 2 6 7 7 5 7 9 11 11 12 8 11 12 10 5
nan nan nan nan nan nan 23 35 26 10 nan nan nan nan nan nan nan nan nan nan nan nan nan nan nan nan 2 4 2 3 4 7 7 8 5 6 9 12 12 9 9 9 9 3
nan nan nan nan nan nan 32 nan nan 15 nan nan nan nan nan nan nan nan nan nan nan nan nan 11 11 9 nan 3 3 5 6 5 8 nan 7 5 5 6 11 11 9 10 10 6
nan nan nan nan 50 39 nan nan nan nan nan nan nan nan nan nan nan nan nan nan nan nan nan 12 13 8 12 nan 2 4 6 7 6 7 8 9 8 9 7 8 7 8 12 11
nan nan nan nan 38 33 27 22 nan nan nan nan nan nan nan nan nan nan nan nan nan nan nan nan 8 6 13 8 3 2 3 4 4 3 4 7 8 9 10 8 7 6 7 9
nan nan nan nan nan 38 22 19 nan nan nan nan nan nan nan 22 22 9 nan nan nan nan nan nan 12 12 10 9 6 3 4 6 6 4 4 4 5 5 7 8 8 9 8 7
nan nan nan nan nan nan nan nan nan nan nan nan nan nan nan 19 20 16 nan nan nan nan 22 nan nan 9 9 13 9 8 10 6 5 7 6 6 5 4 6 6 5 8 9 7
nan nan nan nan nan nan nan nan nan nan nan nan nan nan nan nan 17 14 nan nan nan nan nan nan 20 24 18 16 17 12 13 13 10 7 8 8 9 6 6 8 6 5 8 9
nan nan nan nan nan nan nan nan nan nan nan nan nan nan 21 15 16 12 nan nan nan nan nan nan nan 16 17 18 21 13 16 14 11 9 10 10 11 9 9 9 8 9 7 9
nan nan nan nan nan nan nan nan nan nan nan nan nan nan 22 10 7 nan nan nan nan nan nan nan nan nan 22 20 22 18 20 13 16 15 13 13 15 15 13 11 11 14 11 10
nan nan nan nan nan nan nan nan 45 nan nan nan nan nan 24 11 nan nan nan nan nan nan nan nan nan 14 11 23 27 24 21 26 29 24 18 18 18 18 16 18 17 14 15 15
nan nan nan nan nan 42 43 43 49 48 39 nan nan nan 23 29 29 nan 17 nan nan 23 18 10 8 9 15 18 20 19 25 32 33 29 18 21 24 29 28 28 27 28 21 20
nan nan 30 33 43 44 44 nan nan 42 46 47 49 45 40 41 nan 31 31 nan 30 29 23 17 20 20 23 18 23 23 31 31 36 24 22 28 33 26 30 28 31 33 31 27
nan nan nan 37 41 nan nan nan nan 36 43 41 42 37 42 45 45 33 nan nan nan 24 40 38 30 22 23 17 24 26 28 27 34 37 33 37 33 33 34 26 35 41 30 34
nan nan nan nan nan nan nan nan nan 37 40 44 49 nan 41 39 41 46 nan nan nan nan 47 nan nan 29 31 25 28 32 28 nan 27 35 33 34 43 35 nan 34 34 30 28 28
nan 22 nan nan 38 42 nan nan nan 34 31 39 37 44 46 45 46 nan nan 44 nan 37 nan 16 nan 31 28 31 28 31 28 29 25 25 20 21 28 29 31 32 nan nan nan 23
nan nan 23 nan nan nan nan nan nan nan nan 25 37 37 36 41 nan 40 nan nan 42 39 28 16 30 34 28 23 35 28 29 33 30 35 26 30 25 23 nan nan nan nan nan nan
nan nan nan nan nan nan nan nan nan nan nan 26 31 35 34 38 37 38 nan nan 28 25 31 31 40 36 43 40 35 33 nan nan 24 21 13 25 31 31 nan nan nan nan nan nan
nan nan nan nan nan nan nan nan nan nan 36 24 nan 39 44 31 37 38 29 21 15 17 21 31 34 36 37 42 39 41 46 nan 29 26 27 23 nan nan nan nan nan nan nan nan
nan nan nan nan nan 17 22 34 26 nan 31 29 38 44 45 43 40 38 34 nan 24 19 22 30 nan 32 nan 32 35 36 33 35 33 35 38 32 28 nan nan nan nan nan nan nan
nan nan nan nan nan nan nan nan nan nan 25 26 19 39 44 44 45 48 43 nan nan nan nan nan nan nan nan nan nan 35 35 nan 37 40 41 39 41 40 37 nan nan nan nan nan
nan nan nan nan nan nan nan nan nan nan 27 15 20 24 20 23 19 16 nan nan nan nan nan nan nan nan nan nan nan nan 39 39 41 41 44 43 nan nan 41 41 38 nan nan nan
nan nan nan nan 3 nan nan nan nan nan 20 19 22 20 19 24 23 nan nan nan nan nan nan nan nan nan nan nan nan nan nan nan nan nan nan nan nan nan nan nan nan nan nan nan
Wind_Direction
nan nan nan nan nan nan nan nan nan 247 236 nan nan nan nan nan nan nan nan nan nan nan 321 nan nan 348 340 28 69 77 82 84 95 121 116 116 114 124 123 122 119 118 121 124
nan nan nan nan nan nan nan 251 222 246 256 nan nan nan nan nan nan nan nan nan nan nan 297 nan nan 311 316 9 40 69 93 97 97 115 124 125 130 133 134 124 119 122 126 130
nan nan nan nan 182 nan 216 238 243 nan 268 nan nan nan 207 nan nan nan nan nan nan nan nan 293 nan 300 247 290 58 82 84 84 103 123 132 134 138 144 147 137 128 122 116 118
nan nan nan nan nan nan 224 239 nan nan nan nan nan nan nan nan nan nan nan nan nan nan nan nan 307 267 279 234 111 24 67 67 103 92 146 138 131 133 127 127 118 111 110 136
nan nan nan nan nan nan 250 238 253 268 nan nan nan nan nan nan nan nan nan nan nan nan nan nan nan nan 269 250 148 98 114 118 124 92 119 152 139 137 136 144 118 111 114 141
nan nan nan nan nan nan 263 nan nan 194 nan nan nan nan nan nan nan nan nan nan nan nan nan 271 281 276 nan 236 227 181 141 109 121 nan 142 141 102 128 141 141 142 136 132 154
nan nan nan nan 229 220 nan nan nan nan nan nan nan nan nan nan nan nan nan nan nan nan nan 262 269 275 263 nan 216 205 150 120 111 122 143 130 126 139 123 127 157 157 151 157
nan nan nan nan 234 246 242 261 nan nan nan nan nan nan nan nan nan nan nan nan nan nan nan nan 247 241 265 272 241 251 197 148 123 144 138 132 147 155 163 164 173 169 154 144
nan nan nan nan nan 250 239 244 nan nan nan nan nan nan nan 179 192 236 nan nan nan nan nan nan 213 252 248 262 240 264 229 195 193 170 210 162 167 149 146 156 177 168 161 167
nan nan nan nan nan nan nan nan nan nan nan nan nan nan nan 158 206 227 nan nan nan nan 201 nan nan 198 231 265 252 232 229 218 209 200 208 199 191 173 171 177 169 160 168 198
nan nan nan nan nan nan nan nan nan nan nan nan nan nan nan nan 2 259 nan nan nan nan nan nan 220 204 243 230 264 248 244 232 206 210 229 231 223 195 211 216 210 203 201 215
nan nan nan nan nan nan nan nan nan nan nan nan nan nan 311 353 347 328 nan nan nan nan nan nan nan 253 234 237 261 257 251 255 235 219 224 247 248 243 231 222 217 224 216 223
nan nan nan nan nan nan nan nan nan nan nan nan nan nan 244 259 267 nan nan nan nan nan nan nan nan nan 236 257 238 248 260 238 235 236 235 229 244 249 248 241 232 234 232 228
nan nan nan nan nan nan nan nan 206 nan nan nan nan nan 245 291 nan nan nan nan nan nan nan nan nan 238 258 236 226 228 240 241 251 253 244 242 245 247 242 237 232 242 253 244
nan nan nan nan nan 205 213 205 209 215 214 nan nan nan 247 247 246 nan 236 nan nan 222 230 230 232 244 246 249 257 270 248 248 241 243 229 233 243 243 241 240 234 232 235 248
nan nan 226 222 207 216 224 nan nan 219 214 230 242 240 234 242 nan 235 237 nan 218 228 217 213 235 235 244 243 235 244 231 232 251 245 244 244 235 239 240 236 243 236 237 234
nan nan nan 218 210 nan nan nan nan 219 214 228 236 236 238 236 243 236 nan nan nan 251 240 222 198 221 225 234 252 258 244 252 262 255 256 249 245 238 237 257 232 249 252 248
nan nan nan nan nan nan nan nan nan 219 216 228 238 nan 244 245 247 252 nan nan nan nan 240 nan nan 219 223 213 220 248 255 nan 265 257 241 236 239 239 nan 253 257 252 262 268
nan 222 nan nan 216 228 nan nan nan 214 212 209 233 245 248 249 246 nan nan 260 nan 253 nan 269 nan 231 223 226 221 263 252 238 237 220 226 222 218 228 244 250 nan nan nan 259
nan nan 237 nan nan nan nan nan nan nan nan 204 222 235 237 237 nan 250 nan nan 274 269 282 255 259 255 235 221 241 223 232 234 241 236 252 245 244 230 nan nan nan nan nan nan
nan nan nan nan nan nan nan nan nan nan nan 200 211 232 239 240 248 263 nan nan 272 261 263 255 258 258 262 273 271 279 nan nan 251 215 239 243 252 248 nan nan nan nan nan nan
nan nan nan nan nan nan nan nan nan nan 238 226 nan 230 242 247 260 260 264 258 246 247 253 257 260 254 261 262 261 260 254 nan 244 225 260 274 nan nan nan nan nan nan nan nan
nan nan nan nan nan 218 214 232 246 nan 252 239 241 242 244 250 248 261 251 nan 226 253 290 260 nan 273 nan 265 267 269 264 266 269 266 266 262 254 nan nan nan nan nan nan nan
nan nan nan nan nan nan nan nan nan nan 220 233 249 241 241 254 254 247 256 nan nan nan nan nan nan nan nan nan nan 262 265 nan 269 267 265 261 265 267 265 nan nan nan nan nan
nan nan nan nan nan nan nan nan nan nan 249 248 242 250 255 260 265 281 nan nan nan nan nan nan nan nan nan nan nan nan 265 263 262 263 266 264 nan nan 262 257 257 nan nan nan
nan nan nan nan 71 nan nan nan nan nan 240 256 250 243 254 267 277 nan nan nan nan nan nan nan nan nan nan nan nan nan nan nan nan nan nan nan nan nan nan nan nan nan nan nan